Location: Hanover
(52.3667°N, 9.7167°E)
Time: 06:17:54
(UTC+01:00)

BlueWalker 3 - Visible Passes

Search period start: 17 February 2026 00:00
Search period end: 27 February 2026 00:00
Orbit: 451 x 461 km, 53.2° (Epoch: 15 February)

Date Brightness Start Highest point End Pass type
(mag) Time Alt. Az. Time Alt. Az. Time Alt. Az.
24 Feb 4.3 06:17:17 10° S 06:19:55 19° SE 06:22:34 10° E visible
25 Feb 4.5 05:41:53 10° S 05:44:09 16° SE 05:46:24 10° E visible
26 Feb 4.5 05:06:41 10° SSE 05:08:22 13° SE 05:10:04 10° ESE visible
